SP8EBC-12 Weather Reports


time (UTC)temp
C
wind
direction
speed
KPH
gust
KPH
rain 1hr
cm
rain 24hr
cm
rain mn
cm
humidity
%
barometer
mb
20260905201515 12 272 11.3 14.5 0.00 0.00 0.00 100 1004.4
20260905201313 12 291 9.7 12.9 0.00 0.00 0.00 100 1004.3
20260905201112 12 291 8.0 11.3 0.00 0.00 0.00 100 1004.3
20260905200910 12 284 8.0 9.7 0.00 0.00 0.00 100 1004.2
20260905200708 12 288 11.3 16.1 0.00 0.00 0.00 100 1004.2
20260905200507 12 272 11.3 17.7 0.00 0.00 0.00 100 1004.2
20260905200314 12 279 11.3 17.7 0.00 0.00 0.00 100 1004.3
20260905200112 12 279 9.7 14.5 0.00 0.00 0.00 100 1004.3
20260905195911 12 280 9.7 17.7 0.00 0.00 0.00 100 1004.3
20260905195708 12 285 9.7 14.5 0.00 0.00 0.00 100 1004.2
20260905195507 12 280 11.3 16.1 0.00 0.00 0.00 100 1004.2
20260905195306 12 292 8.0 14.5 0.00 0.00 0.00 100 1004.2
20260905195102 12 287 8.0 12.9 0.00 0.00 0.00 100 1004.3
20260905194901 12 287 9.7 14.5 0.00 0.00 0.00 100 1004.2
20260905194708 12 287 8.0 12.9 0.00 0.00 0.00 100 1004.2
20260905194506 12 289 8.0 11.3 0.00 0.00 0.00 100 1004.2
20260905194303 12 267 11.3 16.1 0.00 0.00 0.00 100 1004.2
20260905194102 12 283 11.3 14.5 0.00 0.00 0.00 100 1004.2
20260905193901 12 277 9.7 16.1 0.00 0.00 0.00 100 1004.2
20260905193657 12 266 11.3 14.5 0.00 0.00 0.00 100 1004.2
20260905193456 12 273 12.9 16.1 0.00 0.00 0.00 100 1004.2
20260905193254 12 274 9.7 16.1 0.00 0.00 0.00 100 1004.3
20260905193052 12 288 9.7 14.5 0.00 0.00 0.00 100 1004.3
20260905192851 12 282 9.7 16.1 0.00 0.00 0.00 100 1004.2
20260905192657 12 271 11.3 16.1 0.00 0.00 0.00 100 1004.2
20260905192456 12 279 11.3 12.9 0.00 0.00 0.00 100 1004.2
20260905192254 12 280 12.9 19.3 0.00 0.00 0.00 100 1004.2
20260905192052 12 282 9.7 12.9 0.00 0.00 0.00 100 1004.2
20260905191851 12 284 9.7 19.3 0.00 0.00 0.00 100 1004.2
20260905191649 12 258 12.9 20.9 0.00 0.00 0.00 100 1004.2
20260905191447 12 293 8.0 14.5 0.00 0.00 0.00 100 1004.2
20260905191244 12 279 9.7 12.9 0.00 0.00 0.00 100 1004.2
20260905191043 12 288 11.3 16.1 0.00 0.00 0.00 100 1004.2
20260905190841 12 275 9.7 14.5 0.00 0.00 0.00 100 1004.2
20260905190649 12 279 9.7 14.5 0.00 0.00 0.00 100 1004.2
20260905190447 12 280 11.3 12.9 0.00 0.00 0.00 100 1004.1
20260905190245 12 288 11.3 12.9 0.00 0.00 0.00 100 1004.1
20260905190043 12 267 12.9 16.1 0.00 0.00 0.00 100 1004.1
20260905185842 12 276 12.9 16.1 0.00 0.00 0.00 100 1004.1
20260905185639 12 278 12.9 17.7 0.00 0.00 0.00 100 1004.0
20260905185437 12 285 9.7 16.1 0.00 0.00 0.00 100 1004.0
20260905185235 12 280 12.9 19.3 0.00 0.00 0.00 100 1004.0
20260905185034 12 275 9.7 14.5 0.00 0.00 0.00 100 1004.0
20260905184832 12 286 12.9 16.1 0.00 0.00 0.00 100 1004.0
20260905184637 12 276 12.9 16.1 0.00 0.00 0.00 100 1003.9
20260905184437 12 287 9.7 19.3 0.00 0.00 0.00 100 1003.9
20260905184235 12 271 11.3 16.1 0.00 0.00 0.00 100 1003.9
20260905184033 12 270 11.3 19.3 0.00 0.00 0.00 100 1003.9
20260905183831 12 279 11.3 14.5 0.00 0.00 0.00 100 1003.9
20260905183629 12 271 11.3 17.7 0.00 0.00 0.00 100 1003.9
20260905183427 12 291 9.7 14.5 0.00 0.00 0.00 100 1003.9
20260905183225 12 279 8.0 16.1 0.00 0.00 0.00 100 1003.8
20260905183023 12 292 4.8 11.3 0.00 0.00 0.00 100 1003.8
20260905182832 12 263 9.7 19.3 0.00 0.00 0.00 100 1003.9
20260905182629 12 268 9.7 11.3 0.00 0.00 0.00 100 1003.8
20260905182428 12 285 6.4 11.3 0.00 0.00 0.00 100 1003.8
20260905182226 12 290 8.0 14.5 0.00 0.00 0.00 100 1003.7
20260905182023 12 280 6.4 9.7 0.00 0.00 0.00 100 1003.7
20260905181822 12 289 8.0 14.5 0.00 0.00 0.00 100 1003.7
20260905181619 12 320 4.8 6.4 0.00 0.00 0.00 100 1003.7
20260905181417 12 275 4.8 8.0 0.00 0.00 0.00 100 1003.6
20260905181216 12 291 4.8 8.0 0.00 0.00 0.00 100 1003.6
20260905181024 12 287 6.4 8.0 0.00 0.00 0.00 100 1003.6
20260905180822 12 275 4.8 6.4 0.00 0.00 0.00 100 1003.6
20260905180619 12 272 6.4 8.0 0.00 0.00 0.00 100 1003.6
20260905180418 12 263 6.4 11.3 0.00 0.00 0.00 100 1003.6
20260905180216 12 283 4.8 6.4 0.00 0.00 0.00 100 1003.5
20260905180014 12 296 3.2 8.0 0.00 0.00 0.00 100 1003.5
20260905175813 12 315 3.2 4.8 0.00 0.00 0.00 100 1003.4
20260905175611 12 270 4.8 9.7 0.00 0.00 0.00 100 1003.4
20260905175409 12 295 3.2 4.8 0.00 0.00 0.00 100 1003.3
20260905175207 12 288 4.8 9.7 0.00 0.00 0.00 100 1020.1
20260905175015 12 310 3.2 6.4 0.00 0.00 0.00 100 1020.1
20260905174814 12 331 3.2 4.8 0.00 0.00 0.00 100 1003.3
20260905174606 12 327 3.2 6.4 0.00 0.00 0.00 100 1003.3
20260905174404 12 297 3.2 3.2 0.00 0.00 0.00 100 1003.3
20260905174212 12 311 3.2 4.8 0.00 0.00 0.00 100 1003.3
20260905174010 12 278 3.2 6.4 0.00 0.00 0.00 100 1003.2
20260905173809 12 283 4.8 6.4 0.00 0.00 0.00 100 1003.2
20260905173607 12 287 3.2 6.4 0.00 0.00 0.00 100 1003.2
20260905173405 13 277 4.8 6.4 0.00 0.00 0.00 100 1003.1
20260905173202 13 284 6.4 11.3 0.00 0.00 0.00 100 1003.1
20260905173001 13 283 9.7 14.5 0.00 0.00 0.00 100 1003.2
20260905172758 13 284 6.4 9.7 0.00 0.00 0.00 100 1003.1
20260905172556 13 265 8.0 14.5 0.00 0.00 0.00 100 1003.1
20260905172355 13 280 9.7 12.9 0.00 0.00 0.00 100 1003.1
20260905172202 13 270 11.3 12.9 0.00 0.00 0.00 100 1003.1
20260905172000 13 280 9.7 12.9 0.00 0.00 0.00 100 1003.0
20260905171758 13 274 9.7 12.9 0.00 0.00 0.00 100 1003.0
20260905171557 13 275 8.0 11.3 0.00 0.00 0.00 100 1003.0
20260905171355 13 275 9.7 14.5 0.00 0.00 0.00 100 1003.0
20260905171153 13 273 11.3 16.1 0.00 0.00 0.00 100 1003.1
20260905170951 13 283 11.3 17.7 0.00 0.00 0.00 100 1003.1
20260905170749 13 286 11.3 17.7 0.00 0.00 0.00 100 1003.1
20260905170547 13 279 9.7 12.9 0.00 0.00 0.00 100 1003.1
20260905170346 13 281 11.3 16.1 0.00 0.00 0.00 100 1003.0
20260905170153 13 279 11.3 12.9 0.00 0.00 0.00 100 1003.0
20260905165952 13 262 12.9 20.9 0.00 0.00 0.00 100 1003.1
20260905165750 13 275 14.5 19.3 0.00 0.00 0.00 100 1003.1
20260905165548 13 280 12.9 16.1 0.00 0.00 0.00 100 1003.1
20260905165346 13 279 12.9 16.1 0.00 0.00 0.00 100 1003.1
20260905165144 13 273 12.9 19.3 0.00 0.00 0.00 100 1003.1
20260905164942 13 264 16.1 19.3 0.00 0.00 0.00 100 1003.1
20260905164740 13 280 12.9 20.9 0.00 0.00 0.00 100 1003.0
20260905164537 13 278 14.5 16.1 0.00 0.00 0.00 100 1003.1
20260905164345 13 274 14.5 19.3 0.00 0.00 0.00 100 1003.1
20260905164143 13 281 12.9 20.9 0.00 0.00 0.00 100 1003.1
20260905163942 13 283 14.5 20.9 0.00 0.00 0.00 100 1003.1
20260905163739 13 266 16.1 22.5 0.00 0.00 0.00 100 1003.1
20260905163537 13 275 19.3 24.1 0.00 0.00 0.00 100 1003.0
20260905163336 13 271 19.3 24.1 0.00 0.00 0.00 100 1002.9
20260905163134 13 276 19.3 25.7 0.00 0.00 0.00 100 1002.9
20260905162932 13 275 19.3 24.1 0.00 0.00 0.00 100 1002.8
20260905162730 13 279 20.9 30.6 0.00 0.00 0.00 100 1002.8
20260905162538 13 269 14.5 22.5 0.00 0.00 0.00 100 1002.8
20260905162336 13 269 12.9 20.9 0.00 0.00 0.00 100 1002.8
20260905162134 13 277 12.9 16.1 0.00 0.00 0.00 100 1002.7
20260905161932 13 278 12.9 19.3 0.00 0.00 0.00 100 1002.7
20260905161731 13 273 12.9 16.1 0.00 0.00 0.00 100 1002.6
20260905161528 13 281 12.9 17.7 0.00 0.00 0.00 100 1002.6
20260905161327 13 276 12.9 16.1 0.00 0.00 0.00 100 1002.5
20260905161125 13 284 12.9 14.5 0.00 0.00 0.00 100 1002.5
20260905160923 13 273 14.5 22.5 0.00 0.00 0.00 100 1002.6
20260905160722 13 265 11.3 17.7 0.00 0.00 0.00 100 1002.6
20260905160529 13 273 11.3 14.5 0.00 0.00 0.00 100 1002.6
20260905160327 13 289 8.0 9.7 0.00 0.00 0.00 100 1002.6
20260905160125 13 284 6.4 14.5 0.00 0.00 0.00 100 1002.6
20260905155923 13 312 4.8 9.7 0.00 0.00 0.00 100 1002.6
20260905155723 13 292 6.4 12.9 0.00 0.00 0.00 100 1002.6
20260905155518 14 274 6.4 8.0 0.00 0.00 0.00 100 1002.6
20260905155317 14 287 9.7 16.1 0.00 0.00 0.00 100 1002.5
20260905155115 14 286 6.4 12.9 0.00 0.00 0.00 100 1002.3
20260905154914 14 247 4.8 11.3 0.00 0.00 0.00 100 1002.1
20260905154713 14 294 4.8 6.4 0.00 0.00 0.00 100 1001.9
20260905154518 15 282 8.0 12.9 0.00 0.00 0.00 100 1001.8
20260905154317 15 285 8.0 12.9 0.00 0.00 0.00 100 1001.7
20260905154115 15 285 4.8 8.0 0.00 0.00 0.00 100 1001.7
20260905153914 14 272 11.3 16.1 0.00 0.00 0.00 100 1001.8
20260905153712 14 289 6.4 11.3 0.00 0.00 0.00 100 1002.1
20260905153509 14 276 6.4 9.7 0.00 0.00 0.00 100 1002.3
20260905153308 14 273 12.9 19.3 0.00 0.00 0.00 100 1002.3
20260905153106 14 275 9.7 16.1 0.00 0.00 0.00 100 1002.4
20260905152904 14 276 14.5 16.1 0.00 0.00 0.00 100 1002.4
20260905152713 14 287 9.7 17.7 0.00 0.00 0.00 100 1002.4
20260905152510 14 272 12.9 20.9 0.00 0.00 0.00 100 1002.4
20260905152308 14 280 9.7 14.5 0.00 0.00 0.00 100 1002.4
20260905152106 15 298 8.0 16.1 0.00 0.00 0.00 100 1002.4
20260905151904 15 296 6.4 9.7 0.00 0.00 0.00 100 1002.4
20260905151703 15 278 11.3 17.7 0.00 0.00 0.00 100 1002.5
20260905151459 15 291 4.8 9.7 0.00 0.00 0.00 100 1002.5
20260905151258 15 282 8.0 11.3 0.00 0.00 0.00 100 1002.4
20260905151104 15 291 4.8 6.4 0.00 0.00 0.00 100 1002.4
20260905150904 15 271 4.8 12.9 0.00 0.00 0.00 100 1002.4
20260905150701 15 297 4.8 6.4 0.00 0.00 0.00 100 1002.4
20260905150457 15 324 3.2 8.0 0.00 0.00 0.00 100 1002.4
20260905150257 15 272 6.4 9.7 0.00 0.00 0.00 100 1002.4
20260905150055 15 323 3.2 6.4 0.00 0.00 0.00 100 1002.5
20260905145853 15 53 3.2 6.4 0.00 0.00 0.00 100 1002.5
20260905145652 15 286 3.2 6.4 0.00 0.00 0.00 100 1002.6
20260905145449 15 231 1.6 3.2 0.00 0.00 0.00 100 1002.6
20260905145248 15 202 4.8 9.7 0.00 0.00 0.00 100 1002.6
20260905145057 15 210 6.4 11.3 0.00 0.00 0.00 100 1002.7
20260905144855 15 166 0.0 1.6 0.00 0.00 0.00 100 1002.8
20260905144654 15 249 6.4 12.9 0.00 0.00 0.00 100 1002.7
20260905144451 15 283 4.8 9.7 0.00 0.00 0.00 100 1002.6
20260905144249 16 303 4.8 6.4 0.00 0.00 0.00 100 1002.5
20260905144047 16 302 4.8 9.7 0.00 0.00 0.00 100 1002.5
20260905143846 16 300 6.4 9.7 0.00 0.00 0.00 100 1002.4
20260905143645 16 276 9.7 12.9 0.00 0.00 0.00 100 1002.4
20260905143452 16 277 14.5 19.3 0.00 0.00 0.00 100 1002.4
20260905143250 16 277 14.5 16.1 0.00 0.00 0.00 100 1002.4
20260905143048 16 276 12.9 17.7 0.00 0.00 0.00 100 1002.4
20260905142846 16 279 12.9 17.7 0.00 0.00 0.00 100 1002.3
20260905142645 17 269 16.1 20.9 0.00 0.00 0.00 100 1002.2
20260905142442 17 279 17.7 24.1 0.00 0.00 0.00 100 1001.9
20260905142239 17 283 14.5 17.7 0.00 0.00 0.00 100 1001.7
20260905142039 17 279 14.5 19.3 0.00 0.00 0.00 100 1001.3
20260905141836 17 274 8.0 12.9 0.00 0.00 0.00 100 1001.0
20260905141635 17 276 8.0 9.7 0.00 0.00 0.00 100 1000.9
20260905141443 16 273 9.7 16.1 0.00 0.00 0.00 100 1001.1
20260905141240 16 273 8.0 12.9 0.00 0.00 0.00 100 1001.4
20260905141038 16 280 11.3 17.7 0.00 0.00 0.00 100 1001.6
20260905140837 16 280 9.7 16.1 0.00 0.00 0.00 100 1001.7
20260905140636 16 274 12.9 17.7 0.00 0.00 0.00 100 1001.7
20260905140433 16 279 9.7 16.1 0.00 0.00 0.00 100 1001.8
20260905140231 16 275 6.4 9.7 0.00 0.00 0.00 100 1001.8
20260905140029 16 267 3.2 4.8 0.00 0.00 0.00 100 1001.9
20260905135827 16 277 9.7 11.3 0.00 0.00 0.00 100 1001.9
20260905135626 16 282 9.7 12.9 0.00 0.00 0.00 100 1001.9
20260905135433 16 279 9.7 14.5 0.00 0.00 0.00 100 1001.9
20260905135231 16 277 11.3 17.7 0.00 0.00 0.00 100 1001.9
20260905135029 16 283 9.7 12.9 0.00 0.00 0.00 100 1001.9
20260905134827 17 283 9.7 12.9 0.00 0.00 0.00 100 1001.8
20260905134626 17 278 14.5 24.1 0.00 0.00 0.00 100 1001.8
20260905134422 17 275 12.9 20.9 0.00 0.00 0.00 100 1001.8
20260905134220 17 288 14.5 24.1 0.00 0.00 0.00 100 1001.8
20260905134018 17 273 14.5 19.3 0.00 0.00 0.00 100 1001.8
20260905133817 17 269 12.9 17.7 0.00 0.00 0.00 100 1001.8
20260905133625 17 268 14.5 20.9 0.00 0.00 0.00 100 1001.9
20260905133423 17 270 14.5 24.1 0.00 0.00 0.00 100 1001.9
20260905133222 17 270 17.7 27.4 0.00 0.00 0.00 100 1002.0
20260905133018 17 264 11.3 17.7 0.00 0.00 0.00 100 1002.1
20260905132817 17 269 12.9 19.3 0.00 0.00 0.00 100 1002.1
20260905132616 17 280 12.9 22.5 0.00 0.00 0.00 100 1002.0
20260905132413 17 280 11.3 17.7 0.00 0.00 0.00 100 1001.8
20260905132212 17 274 16.1 22.5 0.00 0.00 0.00 100 1001.7
20260905132009 17 290 8.0 12.9 0.00 0.00 0.00 100 1001.4
20260905131807 17 283 6.4 11.3 0.00 0.00 0.00 100 1001.1
20260905131616 17 292 11.3 17.7 0.00 0.00 0.00 100 1000.9
20260905131414 17 275 11.3 16.1 0.00 0.00 0.00 100 1000.9
20260905131212 17 276 9.7 14.5 0.00 0.00 0.00 100 1001.0
20260905131009 17 285 16.1 24.1 0.00 0.00 0.00 100 1001.1
20260905130808 17 277 17.7 22.5 0.00 0.00 0.00 100 1001.4
20260905130606 16 272 14.5 22.5 0.00 0.00 0.00 100 1001.7
20260905130404 16 278 16.1 22.5 0.00 0.00 0.00 100 1001.7
20260905130203 17 283 14.5 22.5 0.00 0.00 0.00 100 1001.9
20260905125959 17 281 12.9 17.7 0.00 0.00 0.00 100 1001.9
20260905125809 17 282 9.7 12.9 0.00 0.00 0.00 100 1001.9
20260905125607 17 269 11.3 17.7 0.00 0.00 0.00 100 1002.0
20260905125405 17 279 11.3 16.1 0.00 0.00 0.00 100 1002.0
20260905125203 17 281 14.5 19.3 0.00 0.00 0.00 100 1002.0
20260905125000 17 279 14.5 17.7 0.00 0.00 0.00 100 1001.9
20260905124758 17 278 17.7 25.7 0.00 0.00 0.00 100 1001.9
20260905124558 17 274 17.7 24.1 0.00 0.00 0.00 100 1001.8
20260905124354 17 278 14.5 20.9 0.00 0.00 0.00 100 1001.9
20260905124153 17 284 16.1 25.7 0.00 0.00 0.00 100 1001.8
20260905123959 17 272 16.1 22.5 0.00 0.00 0.00 100 1001.7
20260905123758 17 269 14.5 20.9 0.00 0.00 0.00 100 1001.6
20260905123557 17 273 16.1 22.5 0.00 0.00 0.00 100 1001.5
20260905123352 17 273 17.7 25.7 0.00 0.00 0.00 100 1001.4
20260905123150 17 289 9.7 17.7 0.00 0.00 0.00 100 1001.4
20260905122947 18 302 9.7 29.0 0.00 0.00 0.00 100 1001.4
20260905122746 18 278 16.1 20.9 0.00 0.00 0.00 100 1001.3
20260905122554 18 274 14.5 25.7 0.00 0.00 0.00 100 1001.1
20260905122352 18 267 16.1 29.0 0.00 0.00 0.00 100 1001.2
20260905122150 17 265 9.7 12.9 0.00 0.00 0.00 100 1001.5
20260905121948 17 286 12.9 16.1 0.00 0.00 0.00 100 1001.7
20260905121746 17 276 14.5 25.7 0.00 0.00 0.00 100 1001.7
20260905121545 18 284 14.5 20.9 0.00 0.00 0.00 100 1001.6
20260905121342 18 270 17.7 30.6 0.00 0.00 0.00 100 1001.4
20260905121140 18 285 12.9 19.3 0.00 0.00 0.00 100 1001.3
20260905120938 18 297 8.0 12.9 0.00 0.00 0.00 100 1001.0
20260905120737 19 274 14.5 24.1 0.00 0.00 0.00 100 1000.7
20260905120546 18 270 11.3 20.9 0.00 0.00 0.00 100 1001.1
20260905120344 18 306 8.0 17.7 0.00 0.00 0.00 100 1001.8
20260905120142 18 284 12.9 17.7 0.00 0.00 0.00 100 1001.8
20260905115939 18 284 19.3 29.0 0.00 0.00 0.00 100 1001.2
20260905115739 19 288 17.7 30.6 0.00 0.00 0.00 100 1000.6
20260905115536 19 286 9.7 12.9 0.00 0.00 0.00 100 1000.5
20260905115334 19 273 8.0 11.3 0.00 0.00 0.00 100 1000.4
20260905115132 18 17 6.4 11.3 0.00 0.00 0.00 100 1000.5
20260905114930 18 276 8.0 11.3 0.00 0.00 0.00 100 1000.6
20260905114728 18 299 8.0 12.9 0.00 0.00 0.00 100 1000.7
20260905114537 17 273 19.3 35.4 0.00 0.00 0.00 100 1001.0
20260905114333 17 278 20.9 35.4 0.00 0.00 0.00 100 1001.2
20260905114133 17 291 11.3 16.1 0.00 0.00 0.00 100 1001.3
20260905113929 17 283 14.5 29.0 0.00 0.00 0.00 100 1001.2
20260905113727 17 274 11.3 16.1 0.00 0.00 0.00 100 1001.1
20260905113526 17 275 17.7 25.7 0.00 0.00 0.00 100 1001.0
20260905113324 17 274 16.1 22.5 0.00 0.00 0.00 100 1001.2
20260905113122 17 286 11.3 19.3 0.00 0.00 0.00 100 1001.4
20260905112919 17 305 9.7 14.5 0.00 0.00 0.00 100 1001.5
20260905112728 17 311 9.7 14.5 0.00 0.00 0.00 100 1001.5
20260905112527 17 290 14.5 22.5 0.00 0.00 0.00 100 1001.4
20260905112325 17 289 12.9 19.3 0.00 0.00 0.00 100 1001.3
20260905112123 17 5 6.4 12.9 0.00 0.00 0.00 100 1001.1
20260905111921 17 259 8.0 12.9 0.00 0.00 0.00 100 1001.1
20260905111719 17 348 3.2 6.4 0.00 0.00 0.00 100 1001.4
20260905111518 17 268 6.4 9.7 0.00 0.00 0.00 100 1001.5
20260905111316 17 262 14.5 24.1 0.00 0.00 0.00 100 1001.5
20260905111115 17 285 9.7 12.9 0.00 0.00 0.00 100 1001.6
20260905110913 17 296 4.8 11.3 0.00 0.00 0.00 100 1001.6
20260905110720 17 348 4.8 6.4 0.00 0.00 0.00 100 1001.5
20260905110519 17 276 8.0 14.5 0.00 0.00 0.00 100 1001.3
20260905110317 17 285 8.0 12.9 0.00 0.00 0.00 100 1001.2
20260905110115 17 282 8.0 11.3 0.00 0.00 0.00 100 1001.1
20260905105913 17 303 6.4 16.1 0.00 0.00 0.00 100 1001.0
20260905105713 17 267 8.0 12.9 0.00 0.00 0.00 100 1000.9
20260905105510 17 277 11.3 16.1 0.00 0.00 0.00 100 1001.2
20260905105308 16 334 4.8 9.7 0.00 0.00 0.00 100 1001.4
20260905105107 17 276 11.3 16.1 0.00 0.00 0.00 100 1001.5
20260905104916 17 269 12.9 16.1 0.00 0.00 0.00 100 1001.4
20260905104713 17 274 12.9 20.9 0.00 0.00 0.00 100 1000.8
20260905104511 17 287 14.5 24.1 0.00 0.00 0.00 100 1000.6
20260905104307 16 278 11.3 16.1 0.00 0.00 0.00 100 1001.0
20260905104106 16 284 11.3 17.7 0.00 0.00 0.00 100 1001.2
20260905103904 16 267 14.5 17.7 0.00 0.00 0.00 100 1001.5
20260905103702 16 267 19.3 27.4 0.00 0.00 0.00 100 1001.6
20260905103500 16 272 17.7 27.4 0.00 0.00 0.00 100 1001.9
20260905103258 16 284 17.7 30.6 0.00 0.00 0.00 100 1001.9
20260905103106 16 290 12.9 17.7 0.00 0.00 0.00 100 1001.6
20260905102904 17 283 16.1 22.5 0.00 0.00 0.00 100 1001.3
20260905102703 17 270 22.5 38.6 0.00 0.00 0.00 100 1001.3
20260905102500 17 283 8.0 11.3 0.00 0.00 0.00 100 1001.2
20260905102258 17 281 14.5 25.7 0.00 0.00 0.00 100 1001.1
20260905102057 17 282 12.9 19.3 0.00 0.00 0.00 100 1001.1
20260905101854 17 259 16.1 24.1 0.00 0.00 0.00 100 1001.2
20260905101654 17 283 17.7 24.1 0.00 0.00 0.00 100 1001.5
20260905101451 17 271 17.7 25.7 0.00 0.00 0.00 100 1001.4
20260905101249 17 280 17.7 20.9 0.00 0.00 0.00 100 1001.4
20260905101057 17 323 8.0 12.9 0.00 0.00 0.00 100 1001.4
20260905100855 17 307 9.7 16.1 0.00 0.00 0.00 100 1001.4
20260905100654 17 278 16.1 27.4 0.00 0.00 0.00 100 1001.1
20260905100452 17 284 17.7 27.4 0.00 0.00 0.00 100 1001.0
20260905100251 17 287 12.9 19.3 0.00 0.00 0.00 100 1001.0
20260905100048 17 301 9.7 14.5 0.00 0.00 0.00 100 1001.0
20260905095844 17 273 16.1 29.0 0.00 0.00 0.00 100 1000.8
20260905095642 17 280 9.7 14.5 0.00 0.00 0.00 100 1000.8
20260905095450 17 269 8.0 17.7 0.00 0.00 0.00 100 1000.9
20260905095248 17 283 11.3 16.1 0.00 0.00 0.00 100 1000.9
20260905095047 17 286 11.3 16.1 0.00 0.00 0.00 100 1000.9
20260905094845 17 304 6.4 8.0 0.00 0.00 0.00 100 1000.9
20260905094643 17 276 11.3 17.7 0.00 0.00 0.00 100 1000.8
20260905094442 17 297 14.5 20.9 0.00 0.00 0.00 100 1000.7
20260905094238 17 258 20.9 27.4 0.00 0.00 0.00 100 1001.0
20260905094036 17 286 16.1 24.1 0.00 0.00 0.00 100 1001.1
20260905093834 17 275 19.3 25.7 0.00 0.00 0.00 100 1000.9
20260905093643 17 264 24.1 38.6 0.00 0.00 0.00 100 1000.8
20260905093442 17 281 8.0 17.7 0.00 0.00 0.00 100 1001.1
20260905093238 17 294 8.0 12.9 0.00 0.00 0.00 100 1000.9
20260905093037 17 276 11.3 12.9 0.00 0.00 0.00 100 1000.5
20260905092835 17 271 16.1 20.9 0.00 0.00 0.00 100 1000.4
20260905092634 17 280 19.3 32.2 0.00 0.00 0.00 100 1000.4
20260905092432 17 278 16.1 24.1 0.00 0.00 0.00 100 1000.6
20260905092229 17 277 19.3 32.2 0.00 0.00 0.00 100 1000.9
20260905092027 17 281 24.1 38.6 0.00 0.00 0.00 100 1000.7
20260905091835 17 275 19.3 27.4 0.00 0.00 0.00 100 1000.4
20260905091633 17 276 14.5 22.5 0.00 0.00 0.00 100 1000.4
20260905091432 17 268 16.1 20.9 0.00 0.00 0.00 100 1000.8
20260905091229 17 281 20.9 33.8 0.00 0.00 0.00 100 1000.8
20260905091028 17 291 11.3 22.5 0.00 0.00 0.00 100 1000.4
20260905090825 17 280 20.9 32.2 0.00 0.00 0.00 100 1000.4
20260905090624 17 267 17.7 24.1 0.00 0.00 0.00 100 1000.3
20260905090423 17 280 12.9 20.9 0.00 0.00 0.00 100 1000.2
20260905090219 16 270 17.7 35.4 0.00 0.00 0.00 100 1000.3
20260905090018 16 276 17.7 25.7 0.00 0.00 0.00 100 1000.4
20260905085826 16 259 16.1 27.4 0.00 0.00 0.00 100 1000.5
20260905085624 16 270 19.3 27.4 0.00 0.00 0.00 100 1000.8
20260905085423 17 258 17.7 20.9 0.00 0.00 0.00 100 1000.7
20260905085219 17 275 19.3 27.4 0.00 0.00 0.00 100 1000.5
20260905085018 17 272 19.3 22.5 0.00 0.00 0.00 100 1000.2
20260905084816 17 286 14.5 25.7 0.00 0.00 0.00 100 1000.2
20260905084614 17 282 16.1 27.4 0.00 0.00 0.00 100 1000.3
20260905084413 16 281 17.7 32.2 0.00 0.00 0.00 100 1000.6
20260905084210 17 290 16.1 24.1 0.00 0.00 0.00 100 1000.5
20260905084017 17 277 20.9 25.7 0.00 0.00 0.00 100 1000.4
20260905083816 17 270 16.1 24.1 0.00 0.00 0.00 100 1000.2
20260905083614 17 273 16.1 24.1 0.00 0.00 0.00 100 999.9
20260905083413 16 282 19.3 30.6 0.00 0.00 0.00 100 1000.3
20260905083211 16 269 17.7 22.5 0.00 0.00 0.00 100 1000.7
20260905083009 16 277 16.1 25.7 0.00 0.00 0.00 100 1000.4
20260905082807 16 268 19.3 25.7 0.00 0.00 0.00 100 1000.2
20260905082605 16 267 11.3 20.9 0.00 0.00 0.00 100 1000.2
20260905082404 16 284 11.3 14.5 0.00 0.00 0.00 100 1000.4
20260905082201 16 280 14.5 22.5 0.00 0.00 0.00 100 1000.3
20260905082010 16 288 16.1 22.5 0.00 0.00 0.00 100 999.9
20260905081808 16 270 16.1 25.7 0.00 0.00 0.00 100 999.8
20260905081607 16 262 14.5 19.3 0.00 0.00 0.00 100 999.7
20260905081405 16 288 14.5 20.9 0.00 0.00 0.00 100 999.6
20260905081203 16 270 19.3 24.1 0.00 0.00 0.00 100 999.8
20260905080959 16 275 14.5 19.3 0.00 0.00 0.00 100 1000.0
20260905080758 16 267 22.5 35.4 0.00 0.00 0.00 100 1000.3
20260905080556 16 277 17.7 24.1 0.00 0.00 0.00 100 1000.1
20260905080355 16 270 16.1 17.7 0.00 0.00 0.00 100 1000.1
20260905080152 16 282 16.1 25.7 0.00 0.00 0.00 100 1000.2
20260905075959 16 280 20.9 30.6 0.00 0.00 0.00 100 1000.5
20260905075758 16 281 12.9 17.7 0.00 0.00 0.00 100 1000.5
20260905075557 16 274 20.9 32.2 0.00 0.00 0.00 100 1000.3
20260905075355 16 276 17.7 24.1 0.00 0.00 0.00 100 1000.2
20260905075153 16 280 11.3 17.7 0.00 0.00 0.00 100 1000.1
20260905074951 16 281 19.3 22.5 0.00 0.00 0.00 100 999.6
20260905074749 16 276 14.5 22.5 0.00 0.00 0.00 100 999.2
20260905074547 16 276 16.1 27.4 0.00 0.00 0.00 100 999.1
20260905074346 16 288 14.5 20.9 0.00 0.00 0.00 100 998.8
20260905074152 16 279 14.5 24.1 0.00 0.00 0.00 100 998.7
20260905073950 16 278 17.7 29.0 0.00 0.00 0.00 100 998.6
20260905073748 16 288 11.3 16.1 0.00 0.00 0.00 100 998.9
20260905073547 15 308 9.7 19.3 0.00 0.00 0.00 100 999.0
20260905073345 15 263 16.1 22.5 0.00 0.00 0.00 100 999.1
20260905073143 15 261 17.7 24.1 0.00 0.00 0.00 100 999.4
20260905072938 15 276 12.9 20.9 0.00 0.00 0.00 100 999.8
20260905072737 15 268 19.3 29.0 0.00 0.00 0.00 100 999.7
20260905072545 15 290 14.5 20.9 0.00 0.00 0.00 100 999.7
20260905072344 15 287 8.0 11.3 0.00 0.00 0.00 100 999.6
20260905072138 15 288 12.9 14.5 0.00 0.00 0.00 100 999.6
20260905071936 15 278 16.1 29.0 0.00 0.00 0.00 100 999.6
20260905071734 15 283 14.5 22.5 0.00 0.00 0.00 100 999.5
20260905071533 15 278 16.1 20.9 0.00 0.00 0.00 100 999.6
20260905071331 15 290 11.3 16.1 0.00 0.00 0.00 100 999.7
20260905071139 15 280 17.7 24.1 0.00 0.00 0.00 100 999.6
20260905070937 15 270 17.7 27.4 0.00 0.00 0.00 100 999.5
20260905070735 15 286 14.5 19.3 0.00 0.00 0.00 100 999.5
20260905070533 15 295 9.7 12.9 0.00 0.00 0.00 100 999.4
20260905070332 15 281 16.1 22.5 0.00 0.00 0.00 100 999.3
20260905070130 15 287 6.4 11.3 0.00 0.00 0.00 100 999.2
20260905065928 15 274 14.5 22.5 0.00 0.00 0.00 100 999.1
20260905065726 15 289 9.7 20.9 0.00 0.00 0.00 100 999.1
20260905065524 15 281 9.7 14.5 0.00 0.00 0.00 100 999.1
20260905065323 15 274 17.7 29.0 0.00 0.00 0.00 100 999.1
20260905065131 15 284 8.0 12.9 0.00 0.00 0.00 100 999.2
20260905064929 15 282 12.9 29.0 0.00 0.00 0.00 100 999.0
20260905064726 15 265 14.5 35.4 0.00 0.00 0.00 100 999.0
20260905064525 15 289 9.7 22.5 0.00 0.00 0.00 100 999.0
20260905064323 15 280 11.3 17.7 0.00 0.00 0.00 100 999.1
20260905064119 15 282 11.3 14.5 0.00 0.00 0.00 100 999.0
20260905063918 15 284 16.1 27.4 0.00 0.00 0.00 100 998.8
20260905063716 15 289 12.9 22.5 0.00 0.00 0.00 100 998.5
20260905063515 15 302 9.7 22.5 0.00 0.00 0.00 100 998.7
20260905063323 15 288 9.7 16.1 0.00 0.00 0.00 100 999.1
20260905063121 15 275 12.9 20.9 0.00 0.00 0.00 100 999.2
20260905062919 15 283 9.7 14.5 0.00 0.00 0.00 100 999.2
20260905062717 15 280 12.9 17.7 0.00 0.00 0.00 100 999.1
20260905062515 15 300 8.0 14.5 0.00 0.00 0.00 100 999.1
20260905062314 15 297 9.7 12.9 0.00 0.00 0.00 100 999.0
20260905062112 15 278 9.7 17.7 0.00 0.00 0.00 100 999.0
20260905061910 15 293 6.4 9.7 0.00 0.00 0.00 100 999.0
20260905061707 15 291 8.0 11.3 0.00 0.00 0.00 100 999.0
20260905061506 15 276 6.4 12.9 0.00 0.00 0.00 100 999.0
20260905061315 15 291 6.4 11.3 0.00 0.00 0.00 100 998.6
20260905061112 15 281 9.7 17.7 0.00 0.00 0.00 100 998.5
20260905060911 14 291 4.8 9.7 0.00 0.00 0.00 100 998.7
20260905060708 14 285 9.7 20.9 0.00 0.00 0.00 100 998.8
20260905060506 14 292 6.4 11.3 0.00 0.00 0.00 100 998.8
20260905060305 14 308 6.4 11.3 0.00 0.00 0.00 100 998.9
20260905055900 14 284 9.7 22.5 0.00 0.00 0.00 100 998.9
20260905055658 15 305 6.4 12.9 0.00 0.00 0.00 100 999.0
20260905055457 15 314 6.4 11.3 0.00 0.00 0.00 100 999.1
20260905055306 15 314 6.4 12.9 0.00 0.00 0.00 100 999.1
20260905055103 15 287 8.0 12.9 0.00 0.00 0.00 100 999.0
20260905054902 15 309 6.4 11.3 0.00 0.00 0.00 100 998.8
20260905054659 15 289 6.4 11.3 0.00 0.00 0.00 100 998.3
20260905054457 15 270 9.7 17.7 0.00 0.00 0.00 100 998.0
20260905054256 15 294 6.4 11.3 0.00 0.00 0.00 100 997.9
20260905054053 15 270 9.7 16.1 0.00 0.00 0.00 100 997.7
20260905053851 15 275 9.7 14.5 0.00 0.00 0.00 100 997.6
20260905053658 14 312 6.4 12.9 0.00 0.00 0.00 100 997.8
20260905053457 14 303 6.4 11.3 0.00 0.00 0.00 100 998.0
20260905053255 14 295 6.4 11.3 0.00 0.00 0.00 100 998.3
20260905053053 14 277 9.7 16.1 0.00 0.00 0.00 100 998.5
20260905052852 14 290 8.0 12.9 0.00 0.00 0.00 100 998.6
20260905052650 14 297 9.7 12.9 0.00 0.00 0.00 100 998.6
20260905052447 14 298 6.4 8.0 0.00 0.00 0.00 100 998.6
20260905052246 14 273 11.3 16.1 0.00 0.00 0.00 100 998.5
20260905052043 14 282 12.9 19.3 0.00 0.00 0.00 100 998.5
20260905051842 14 286 9.7 17.7 0.00 0.00 0.00 100 998.5
20260905051650 14 282 9.7 19.3 0.00 0.00 0.00 100 998.3
20260905051448 14 283 12.9 19.3 0.00 0.00 0.00 100 998.2
20260905051246 14 283 14.5 19.3 0.00 0.00 0.00 100 998.3
20260905051044 14 305 9.7 16.1 0.00 0.00 0.00 100 998.4
20260905050842 14 288 11.3 19.3 0.00 0.00 0.00 100 998.4
20260905050640 14 296 9.7 17.7 0.00 0.00 0.00 100 998.4
20260905050438 14 289 11.3 17.7 0.00 0.00 0.00 100 998.3
20260905050237 14 280 11.3 19.3 0.00 0.00 0.00 100 998.3
20260905050034 14 283 11.3 20.9 0.00 0.00 0.00 100 998.3
20260905045833 14 270 9.7 20.9 0.00 0.00 0.00 100 998.2
20260905045640 14 288 11.3 19.3 0.00 0.00 0.00 100 998.1
20260905045438 14 281 12.9 19.3 0.00 0.00 0.00 100 998.1
20260905045238 14 286 11.3 16.1 0.00 0.00 0.00 100 998.1
20260905045035 14 290 9.7 14.5 0.00 0.00 0.00 100 998.1
20260905044834 14 253 17.7 30.6 0.00 0.00 0.00 100 998.1
20260905044629 14 268 12.9 19.3 0.00 0.00 0.00 100 997.9
20260905044427 14 297 12.9 30.6 0.00 0.00 0.00 100 997.9
20260905044226 14 290 14.5 19.3 0.00 0.00 0.00 100 998.0
20260905044032 14 280 12.9 17.7 0.00 0.00 0.00 100 998.0
20260905043831 14 278 14.5 25.7 0.00 0.00 0.00 100 998.0
20260905043629 14 273 9.7 16.1 0.00 0.00 0.00 100 997.9
20260905043426 14 282 12.9 19.3 0.00 0.00 0.00 100 997.9
20260905043225 13 270 17.7 25.7 0.00 0.00 0.00 100 997.9
20260905043022 14 282 12.9 20.9 0.00 0.00 0.00 100 997.9
20260905042821 13 276 14.5 22.5 0.00 0.00 0.00 100 998.0
20260905042618 14 286 11.3 14.5 0.00 0.00 0.00 100 997.9
20260905042427 14 259 16.1 22.5 0.00 0.00 0.00 100 997.9
20260905042226 14 283 16.1 25.7 0.00 0.00 0.00 100 997.8
20260905042023 14 289 14.5 17.7 0.00 0.00 0.00 100 997.8
20260905041822 14 277 16.1 20.9 0.00 0.00 0.00 100 997.7
20260905041619 14 276 11.3 14.5 0.00 0.00 0.00 100 997.7
20260905041418 14 264 17.7 30.6 0.00 0.00 0.00 100 997.8
20260905041217 13 276 12.9 16.1 0.00 0.00 0.00 100 997.8
20260905041014 13 279 12.9 16.1 0.00 0.00 0.00 100 997.8
20260905040813 13 274 8.0 11.3 0.00 0.00 0.00 100 997.8
20260905040611 13 279 9.7 16.1 0.00 0.00 0.00 100 997.8
20260905040418 13 296 9.7 12.9 0.00 0.00 0.00 100 997.7
20260905040217 13 276 9.7 14.5 0.00 0.00 0.00 100 997.6
20260905040014 13 286 12.9 22.5 0.00 0.00 0.00 100 997.6
20260905035813 13 282 11.3 17.7 0.00 0.00 0.00 100 997.6
20260905035611 13 296 11.3 22.5 0.00 0.00 0.00 100 997.6
20260905035409 13 271 11.3 19.3 0.00 0.00 0.00 100 997.6
20260905035207 13 292 11.3 14.5 0.00 0.00 0.00 100 997.6
20260905035005 13 285 12.9 16.1 0.00 0.00 0.00 100 997.6
20260905034803 13 284 12.9 17.7 0.00 0.00 0.00 100 997.6
20260905034601 13 289 9.7 12.9 0.00 0.00 0.00 100 997.6
20260905034410 13 286 12.9 19.3 0.00 0.00 0.00 100 997.6
20260905034208 14 273 12.9 17.7 0.00 0.00 0.00 100 997.6
20260905034004 13 272 16.1 24.1 0.00 0.00 0.00 100 997.6
20260905033803 13 265 16.1 22.5 0.00 0.00 0.00 100 997.5
20260905033600 13 279 12.9 17.7 0.00 0.00 0.00 100 997.5
20260905033358 13 278 14.5 20.9 0.00 0.00 0.00 100 997.5
20260905033157 14 272 12.9 19.3 0.00 0.00 0.00 100 997.5
20260905032955 14 285 11.3 14.5 0.00 0.00 0.00 100 997.5
20260905032753 14 280 11.3 19.3 0.00 0.00 0.00 100 997.5
20260905032601 14 279 9.7 20.9 0.00 0.00 0.00 100 997.4
20260905032359 14 252 11.3 16.1 0.00 0.00 0.00 100 997.4
20260905032157 14 288 14.5 22.5 0.00 0.00 0.00 100 997.3
20260905031955 14 293 12.9 22.5 0.00 0.00 0.00 100 997.3
20260905031754 14 290 16.1 32.2 0.00 0.00 0.00 100 997.3
20260905031551 14 288 9.7 12.9 0.00 0.00 0.00 100 997.3
20260905031350 14 292 12.9 14.5 0.00 0.00 0.00 100 997.2
20260905031148 14 279 14.5 20.9 0.00 0.00 0.00 100 997.2
20260905030945 14 270 22.5 32.2 0.00 0.00 0.00 100 997.1
20260905030744 14 281 16.1 20.9 0.00 0.00 0.00 100 997.2
20260905030552 14 278 17.7 29.0 0.00 0.00 0.00 100 997.1
20260905030350 14 277 19.3 27.4 0.00 0.00 0.00 100 997.0
20260905030148 14 288 14.5 20.9 0.00 0.00 0.00 100 997.1
20260905025946 14 276 16.1 22.5 0.00 0.00 0.00 100 997.1
20260905025744 14 277 14.5 20.9 0.00 0.00 0.00 100 997.0
20260905025542 14 276 16.1 25.7 0.00 0.00 0.00 100 997.0
20260905025340 14 286 12.9 17.7 0.00 0.00 0.00 100 997.0
20260905025138 14 283 14.5 27.4 0.00 0.00 0.00 100 997.0
20260905024937 14 272 12.9 17.7 0.00 0.00 0.00 100 996.9
20260905024735 14 289 11.3 16.1 0.00 0.00 0.00 100 996.8
20260905024543 14 289 16.1 22.5 0.00 0.00 0.00 100 996.9
20260905024341 14 270 16.1 24.1 0.00 0.00 0.00 100 996.8
20260905024139 14 284 16.1 20.9 0.00 0.00 0.00 100 996.8
20260905023936 15 281 16.1 22.5 0.00 0.00 0.00 100 996.7
20260905023734 14 271 16.1 19.3 0.00 0.00 0.00 100 996.7
20260905023532 14 287 14.5 17.7 0.00 0.00 0.00 100 996.6
20260905023330 14 278 17.7 27.4 0.00 0.00 0.00 100 996.5
20260905023129 14 268 17.7 22.5 0.00 0.00 0.00 100 996.4
20260905022936 14 279 16.1 20.9 0.00 0.00 0.00 100 996.1
20260905022735 14 273 19.3 29.0 0.00 0.00 0.00 100 995.9
20260905022533 14 268 16.1 27.4 0.00 0.00 0.00 100 995.6
20260905022331 15 265 20.9 32.2 0.00 0.00 0.00 100 995.9
20260905022159 15 267 19.3 29.0 0.00 0.00 0.00 100 996.1